owner,sensor,date,latitude,longitude,air_temperature,qcFlag 
WAVCIS,ioos:station:WAVCIS:CSI06:1,2011-02-01T00:00:00Z,28.8667,-90.4833,12.65,11111222 
WAVCIS,ioos:station:WAVCIS:CSI06:1,2011-02-01T01:00:00Z,28.8667,-90.4833,12.58,11111222 
WAVCIS,ioos:station:WAVCIS:CSI06:1,2011-02-01T02:00:00Z,28.8667,-90.4833,12.7,11111222 
WAVCIS,ioos:station:WAVCIS:CSI06:1,2011-02-01T03:00:00Z,28.8667,-90.4833,13.15,11111222 
WAVCIS,ioos:station:WAVCIS:CSI06:1,2011-02-01T04:00:00Z,28.8667,-90.4833,14.03,11111222 
WAVCIS,ioos:station:WAVCIS:CSI06:1,2011-02-01T05:00:00Z,28.8667,-90.4833,13.93,11111222 
WAVCIS,ioos:station:WAVCIS:CSI06:1,2011-02-01T06:00:00Z,28.8667,-90.4833,14.92,11111222 
WAVCIS,ioos:station:WAVCIS:CSI06:1,2011-02-01T07:00:00Z,28.8667,-90.4833,15.41,11111222 
WAVCIS,ioos:station:WAVCIS:CSI06:1,2011-02-01T08:00:00Z,28.8667,-90.4833,15.84,11111222 
WAVCIS,ioos:station:WAVCIS:CSI06:1,2011-02-01T09:00:00Z,28.8667,-90.4833,16.17,11111222 
WAVCIS,ioos:station:WAVCIS:CSI06:1,2011-02-01T10:00:00Z,28.8667,-90.4833,16.54,11111222 
WAVCIS,ioos:station:WAVCIS:CSI06:1,2011-02-01T11:00:00Z,28.8667,-90.4833,16.78,11111222 
WAVCIS,ioos:station:WAVCIS:CSI06:1,2011-02-01T12:00:00Z,28.8667,-90.4833,17.33,11111222 
WAVCIS,ioos:station:WAVCIS:CSI06:1,2011-02-01T13:00:00Z,28.8667,-90.4833,17.45,11111222 
WAVCIS,ioos:station:WAVCIS:CSI06:1,2011-02-01T14:00:00Z,28.8667,-90.4833,17.41,11111222 
WAVCIS,ioos:station:WAVCIS:CSI06:1,2011-02-01T15:00:00Z,28.8667,-90.4833,17.48,11111222 
WAVCIS,ioos:station:WAVCIS:CSI06:1,2011-02-01T16:00:00Z,28.8667,-90.4833,18.19,11111222 
WAVCIS,ioos:station:WAVCIS:CSI06:1,2011-02-01T17:00:00Z,28.8667,-90.4833,18.01,11111222 
WAVCIS,ioos:station:WAVCIS:CSI06:1,2011-02-01T18:00:00Z,28.8667,-90.4833,18.31,11111222 
WAVCIS,ioos:station:WAVCIS:CSI06:1,2011-02-01T19:00:00Z,28.8667,-90.4833,19.15,11111222 
WAVCIS,ioos:station:WAVCIS:CSI06:1,2011-02-01T20:00:00Z,28.8667,-90.4833,19.21,11111222 
WAVCIS,ioos:station:WAVCIS:CSI06:1,2011-02-01T21:00:00Z,28.8667,-90.4833,18.47,11111222 
WAVCIS,ioos:station:WAVCIS:CSI06:1,2011-02-01T22:00:00Z,28.8667,-90.4833,14.16,11111222 
WAVCIS,ioos:station:WAVCIS:CSI06:1,2011-02-01T23:00:00Z,28.8667,-90.4833,12.96,11111222 
WAVCIS,ioos:station:WAVCIS:CSI06:1,2011-02-02T00:00:00Z,28.8667,-90.4833,11.51,11111222 
WAVCIS,ioos:station:WAVCIS:CSI06:1,2011-02-02T01:00:00Z,28.8667,-90.4833,11.07,11111222 
WAVCIS,ioos:station:WAVCIS:CSI06:1,2011-02-02T02:00:00Z,28.8667,-90.4833,10.84,11111222 
WAVCIS,ioos:station:WAVCIS:CSI06:1,2011-02-02T03:00:00Z,28.8667,-90.4833,10.2,11111222 
WAVCIS,ioos:station:WAVCIS:CSI06:1,2011-02-02T04:00:00Z,28.8667,-90.4833,9.25,11111222 
WAVCIS,ioos:station:WAVCIS:CSI06:1,2011-02-02T05:00:00Z,28.8667,-90.4833,8.68,11111222 
WAVCIS,ioos:station:WAVCIS:CSI06:1,2011-02-02T06:00:00Z,28.8667,-90.4833,6.68,11111222 
WAVCIS,ioos:station:WAVCIS:CSI06:1,2011-02-02T07:00:00Z,28.8667,-90.4833,4.672,11111222 
WAVCIS,ioos:station:WAVCIS:CSI06:1,2011-02-02T08:00:00Z,28.8667,-90.4833,3.415,11111222 
WAVCIS,ioos:station:WAVCIS:CSI06:1,2011-02-02T09:00:00Z,28.8667,-90.4833,2.915,11111222 
WAVCIS,ioos:station:WAVCIS:CSI06:1,2011-02-02T10:00:00Z,28.8667,-90.4833,2.785,11111222 
WAVCIS,ioos:station:WAVCIS:CSI06:1,2011-02-02T11:00:00Z,28.8667,-90.4833,2.527,11111222 
WAVCIS,ioos:station:WAVCIS:CSI06:1,2011-02-02T12:00:00Z,28.8667,-90.4833,1.846,11111222 
WAVCIS,ioos:station:WAVCIS:CSI06:1,2011-02-02T13:00:00Z,28.8667,-90.4833,1.325,11111222 
WAVCIS,ioos:station:WAVCIS:CSI06:1,2011-02-02T14:00:00Z,28.8667,-90.4833,0.704,11111222 
WAVCIS,ioos:station:WAVCIS:CSI06:1,2011-02-02T15:00:00Z,28.8667,-90.4833,0.41,11111222 
WAVCIS,ioos:station:WAVCIS:CSI06:1,2011-02-02T16:00:00Z,28.8667,-90.4833,0.51,11111222 
WAVCIS,ioos:station:WAVCIS:CSI06:1,2011-02-02T17:00:00Z,28.8667,-90.4833,0.235,11111222 
WAVCIS,ioos:station:WAVCIS:CSI06:1,2011-02-02T18:00:00Z,28.8667,-90.4833,0.322,11111222 
WAVCIS,ioos:station:WAVCIS:CSI06:1,2011-02-02T19:00:00Z,28.8667,-90.4833,0.478,11111222 
WAVCIS,ioos:station:WAVCIS:CSI06:1,2011-02-02T20:00:00Z,28.8667,-90.4833,1.248,11111222 
WAVCIS,ioos:station:WAVCIS:CSI06:1,2011-02-02T21:00:00Z,28.8667,-90.4833,1.432,11111222 
WAVCIS,ioos:station:WAVCIS:CSI06:1,2011-02-02T22:00:00Z,28.8667,-90.4833,2.058,11111222 
WAVCIS,ioos:station:WAVCIS:CSI06:1,2011-02-02T23:00:00Z,28.8667,-90.4833,2.247,11111222 
WAVCIS,ioos:station:WAVCIS:CSI06:1,2011-02-03T00:00:00Z,28.8667,-90.4833,2.421,11111222 
WAVCIS,ioos:station:WAVCIS:CSI06:1,2011-02-03T01:00:00Z,28.8667,-90.4833,2.692,11111222 
WAVCIS,ioos:station:WAVCIS:CSI06:1,2011-02-03T02:00:00Z,28.8667,-90.4833,2.965,11111222 
WAVCIS,ioos:station:WAVCIS:CSI06:1,2011-02-03T03:00:00Z,28.8667,-90.4833,2.962,11111222 
WAVCIS,ioos:station:WAVCIS:CSI06:1,2011-02-03T04:00:00Z,28.8667,-90.4833,3.126,11111222 
WAVCIS,ioos:station:WAVCIS:CSI06:1,2011-02-03T05:00:00Z,28.8667,-90.4833,2.944,11111222 
WAVCIS,ioos:station:WAVCIS:CSI06:1,2011-02-03T06:00:00Z,28.8667,-90.4833,2.65,11111222 
WAVCIS,ioos:station:WAVCIS:CSI06:1,2011-02-03T07:00:00Z,28.8667,-90.4833,2.619,11111222 
WAVCIS,ioos:station:WAVCIS:CSI06:1,2011-02-03T08:00:00Z,28.8667,-90.4833,2.826,11111222 
WAVCIS,ioos:station:WAVCIS:CSI06:1,2011-02-03T09:00:00Z,28.8667,-90.4833,2.92,11111222 
WAVCIS,ioos:station:WAVCIS:CSI06:1,2011-02-03T10:00:00Z,28.8667,-90.4833,2.829,11111222 
WAVCIS,ioos:station:WAVCIS:CSI06:1,2011-02-03T11:00:00Z,28.8667,-90.4833,2.888,11111222 
WAVCIS,ioos:station:WAVCIS:CSI06:1,2011-02-03T12:00:00Z,28.8667,-90.4833,2.859,11111222 
WAVCIS,ioos:station:WAVCIS:CSI06:1,2011-02-03T13:00:00Z,28.8667,-90.4833,2.614,11111222 
WAVCIS,ioos:station:WAVCIS:CSI06:1,2011-02-03T14:00:00Z,28.8667,-90.4833,2.84,11111222 
WAVCIS,ioos:station:WAVCIS:CSI06:1,2011-02-03T15:00:00Z,28.8667,-90.4833,2.833,11111222 
WAVCIS,ioos:station:WAVCIS:CSI06:1,2011-02-03T16:00:00Z,28.8667,-90.4833,2.768,11111222 
WAVCIS,ioos:station:WAVCIS:CSI06:1,2011-02-03T17:00:00Z,28.8667,-90.4833,2.664,11111222 
WAVCIS,ioos:station:WAVCIS:CSI06:1,2011-02-03T18:00:00Z,28.8667,-90.4833,2.621,11111222 
WAVCIS,ioos:station:WAVCIS:CSI06:1,2011-02-03T19:00:00Z,28.8667,-90.4833,2.716,11111222 
WAVCIS,ioos:station:WAVCIS:CSI06:1,2011-02-03T20:00:00Z,28.8667,-90.4833,2.744,11111222 
WAVCIS,ioos:station:WAVCIS:CSI06:1,2011-02-03T21:00:00Z,28.8667,-90.4833,2.94,11111222 
WAVCIS,ioos:station:WAVCIS:CSI06:1,2011-02-03T22:00:00Z,28.8667,-90.4833,3.061,11111222 
WAVCIS,ioos:station:WAVCIS:CSI06:1,2011-02-03T23:00:00Z,28.8667,-90.4833,3.147,11111222 
WAVCIS,ioos:station:WAVCIS:CSI06:1,2011-02-04T00:00:00Z,28.8667,-90.4833,3.148,11111222 
WAVCIS,ioos:station:WAVCIS:CSI06:1,2011-02-04T01:00:00Z,28.8667,-90.4833,3.126,11111222 
WAVCIS,ioos:station:WAVCIS:CSI06:1,2011-02-04T02:00:00Z,28.8667,-90.4833,2.638,11111222 
WAVCIS,ioos:station:WAVCIS:CSI06:1,2011-02-04T03:00:00Z,28.8667,-90.4833,2.854,11111222 
WAVCIS,ioos:station:WAVCIS:CSI06:1,2011-02-04T04:00:00Z,28.8667,-90.4833,3.674,11111222 
WAVCIS,ioos:station:WAVCIS:CSI06:1,2011-02-04T05:00:00Z,28.8667,-90.4833,5.205,11111222 
WAVCIS,ioos:station:WAVCIS:CSI06:1,2011-02-04T06:00:00Z,28.8667,-90.4833,4.692,11111222 
WAVCIS,ioos:station:WAVCIS:CSI06:1,2011-02-04T07:00:00Z,28.8667,-90.4833,4.371,11111222 
WAVCIS,ioos:station:WAVCIS:CSI06:1,2011-02-04T08:00:00Z,28.8667,-90.4833,4.584,11111222 
WAVCIS,ioos:station:WAVCIS:CSI06:1,2011-02-04T09:00:00Z,28.8667,-90.4833,5.166,11111222 
WAVCIS,ioos:station:WAVCIS:CSI06:1,2011-02-04T10:00:00Z,28.8667,-90.4833,6.43,11111222 
WAVCIS,ioos:station:WAVCIS:CSI06:1,2011-02-04T11:00:00Z,28.8667,-90.4833,9.3,11111222 
WAVCIS,ioos:station:WAVCIS:CSI06:1,2011-02-04T12:00:00Z,28.8667,-90.4833,5.88,11111222 
WAVCIS,ioos:station:WAVCIS:CSI06:1,2011-02-04T13:00:00Z,28.8667,-90.4833,4.702,11111222 
WAVCIS,ioos:station:WAVCIS:CSI06:1,2011-02-04T14:00:00Z,28.8667,-90.4833,3.87,11111222 
WAVCIS,ioos:station:WAVCIS:CSI06:1,2011-02-04T15:00:00Z,28.8667,-90.4833,4.021,11111222 
WAVCIS,ioos:station:WAVCIS:CSI06:1,2011-02-04T16:00:00Z,28.8667,-90.4833,4.354,11111222 
WAVCIS,ioos:station:WAVCIS:CSI06:1,2011-02-04T17:00:00Z,28.8667,-90.4833,3.429,11111222 
WAVCIS,ioos:station:WAVCIS:CSI06:1,2011-02-04T18:00:00Z,28.8667,-90.4833,3.534,11111222 
WAVCIS,ioos:station:WAVCIS:CSI06:1,2011-02-04T19:00:00Z,28.8667,-90.4833,3.619,11111222 
WAVCIS,ioos:station:WAVCIS:CSI06:1,2011-02-04T20:00:00Z,28.8667,-90.4833,3.265,11111222 
WAVCIS,ioos:station:WAVCIS:CSI06:1,2011-02-04T21:00:00Z,28.8667,-90.4833,4.191,11111222 
WAVCIS,ioos:station:WAVCIS:CSI06:1,2011-02-04T22:00:00Z,28.8667,-90.4833,4.46,11111222 
WAVCIS,ioos:station:WAVCIS:CSI06:1,2011-02-04T23:00:00Z,28.8667,-90.4833,5.029,11111222 
WAVCIS,ioos:station:WAVCIS:CSI06:1,2011-02-05T00:00:00Z,28.8667,-90.4833,5.349,11111222 
WAVCIS,ioos:station:WAVCIS:CSI06:1,2011-02-05T01:00:00Z,28.8667,-90.4833,4.898,11111222 
WAVCIS,ioos:station:WAVCIS:CSI06:1,2011-02-05T02:00:00Z,28.8667,-90.4833,4.64,11111222 
WAVCIS,ioos:station:WAVCIS:CSI06:1,2011-02-05T03:00:00Z,28.8667,-90.4833,4.557,11111222 
WAVCIS,ioos:station:WAVCIS:CSI06:1,2011-02-05T04:00:00Z,28.8667,-90.4833,4.258,11111222 
WAVCIS,ioos:station:WAVCIS:CSI06:1,2011-02-05T05:00:00Z,28.8667,-90.4833,3.964,11111222 
WAVCIS,ioos:station:WAVCIS:CSI06:1,2011-02-05T06:00:00Z,28.8667,-90.4833,3.142,11111222 
WAVCIS,ioos:station:WAVCIS:CSI06:1,2011-02-05T07:00:00Z,28.8667,-90.4833,2.849,11111222 
WAVCIS,ioos:station:WAVCIS:CSI06:1,2011-02-05T08:00:00Z,28.8667,-90.4833,1.587,11111222 
WAVCIS,ioos:station:WAVCIS:CSI06:1,2011-02-05T09:00:00Z,28.8667,-90.4833,0.801,11111222 
WAVCIS,ioos:station:WAVCIS:CSI06:1,2011-02-05T10:00:00Z,28.8667,-90.4833,0.573,11111222 
WAVCIS,ioos:station:WAVCIS:CSI06:1,2011-02-05T11:00:00Z,28.8667,-90.4833,0.837,11111222 
WAVCIS,ioos:station:WAVCIS:CSI06:1,2011-02-05T12:00:00Z,28.8667,-90.4833,1.025,11111222 
WAVCIS,ioos:station:WAVCIS:CSI06:1,2011-02-05T13:00:00Z,28.8667,-90.4833,1.275,11111222 
WAVCIS,ioos:station:WAVCIS:CSI06:1,2011-02-05T14:00:00Z,28.8667,-90.4833,1.587,11111222 
WAVCIS,ioos:station:WAVCIS:CSI06:1,2011-02-05T15:00:00Z,28.8667,-90.4833,1.723,11111222 
WAVCIS,ioos:station:WAVCIS:CSI06:1,2011-02-05T16:00:00Z,28.8667,-90.4833,1.979,11111222 
WAVCIS,ioos:station:WAVCIS:CSI06:1,2011-02-05T17:00:00Z,28.8667,-90.4833,2.249,11111222 
WAVCIS,ioos:station:WAVCIS:CSI06:1,2011-02-05T18:00:00Z,28.8667,-90.4833,2.704,11111222 
WAVCIS,ioos:station:WAVCIS:CSI06:1,2011-02-05T19:00:00Z,28.8667,-90.4833,3.232,11111222 
WAVCIS,ioos:station:WAVCIS:CSI06:1,2011-02-05T20:00:00Z,28.8667,-90.4833,3.862,11111222 
WAVCIS,ioos:station:WAVCIS:CSI06:1,2011-02-05T21:00:00Z,28.8667,-90.4833,4.456,11111222 
WAVCIS,ioos:station:WAVCIS:CSI06:1,2011-02-05T22:00:00Z,28.8667,-90.4833,5.019,11111222 
WAVCIS,ioos:station:WAVCIS:CSI06:1,2011-02-05T23:00:00Z,28.8667,-90.4833,5.55,11111222 
WAVCIS,ioos:station:WAVCIS:CSI06:1,2011-02-06T00:00:00Z,28.8667,-90.4833,5.94,11111222 
WAVCIS,ioos:station:WAVCIS:CSI06:1,2011-02-06T01:00:00Z,28.8667,-90.4833,6.12,11111222 
WAVCIS,ioos:station:WAVCIS:CSI06:1,2011-02-06T02:00:00Z,28.8667,-90.4833,6.48,11111222 
WAVCIS,ioos:station:WAVCIS:CSI06:1,2011-02-06T03:00:00Z,28.8667,-90.4833,6.68,11111222 
WAVCIS,ioos:station:WAVCIS:CSI06:1,2011-02-06T04:00:00Z,28.8667,-90.4833,7.04,11111222 
WAVCIS,ioos:station:WAVCIS:CSI06:1,2011-02-06T05:00:00Z,28.8667,-90.4833,7.86,11111222 
WAVCIS,ioos:station:WAVCIS:CSI06:1,2011-02-06T06:00:00Z,28.8667,-90.4833,8.54,11111222 
WAVCIS,ioos:station:WAVCIS:CSI06:1,2011-02-06T07:00:00Z,28.8667,-90.4833,8.75,11111222 
WAVCIS,ioos:station:WAVCIS:CSI06:1,2011-02-06T08:00:00Z,28.8667,-90.4833,9.45,11111222 
WAVCIS,ioos:station:WAVCIS:CSI06:1,2011-02-06T09:00:00Z,28.8667,-90.4833,9.98,11111222 
WAVCIS,ioos:station:WAVCIS:CSI06:1,2011-02-06T10:00:00Z,28.8667,-90.4833,10.72,11111222 
WAVCIS,ioos:station:WAVCIS:CSI06:1,2011-02-06T11:00:00Z,28.8667,-90.4833,11.08,11111222 
WAVCIS,ioos:station:WAVCIS:CSI06:1,2011-02-06T12:00:00Z,28.8667,-90.4833,11.33,11111222 
WAVCIS,ioos:station:WAVCIS:CSI06:1,2011-02-06T13:00:00Z,28.8667,-90.4833,11.53,11111222 
WAVCIS,ioos:station:WAVCIS:CSI06:1,2011-02-06T14:00:00Z,28.8667,-90.4833,11.91,11111222 
WAVCIS,ioos:station:WAVCIS:CSI06:1,2011-02-06T15:00:00Z,28.8667,-90.4833,12.24,11111222 
WAVCIS,ioos:station:WAVCIS:CSI06:1,2011-02-06T16:00:00Z,28.8667,-90.4833,12.54,11111222 
WAVCIS,ioos:station:WAVCIS:CSI06:1,2011-02-06T17:00:00Z,28.8667,-90.4833,12.74,11111222 
WAVCIS,ioos:station:WAVCIS:CSI06:1,2011-02-06T18:00:00Z,28.8667,-90.4833,12.3,11111222 
WAVCIS,ioos:station:WAVCIS:CSI06:1,2011-02-06T19:00:00Z,28.8667,-90.4833,12.41,11111222 
WAVCIS,ioos:station:WAVCIS:CSI06:1,2011-02-06T20:00:00Z,28.8667,-90.4833,12.92,11111222 
WAVCIS,ioos:station:WAVCIS:CSI06:1,2011-02-06T21:00:00Z,28.8667,-90.4833,13.59,11111222 
WAVCIS,ioos:station:WAVCIS:CSI06:1,2011-02-06T22:00:00Z,28.8667,-90.4833,13.76,11111222 
WAVCIS,ioos:station:WAVCIS:CSI06:1,2011-02-06T23:00:00Z,28.8667,-90.4833,13.59,11111222 
WAVCIS,ioos:station:WAVCIS:CSI06:1,2011-02-07T00:00:00Z,28.8667,-90.4833,13.39,11111222 
WAVCIS,ioos:station:WAVCIS:CSI06:1,2011-02-07T01:00:00Z,28.8667,-90.4833,13.53,11111222 
WAVCIS,ioos:station:WAVCIS:CSI06:1,2011-02-07T02:00:00Z,28.8667,-90.4833,13.76,11111222 
WAVCIS,ioos:station:WAVCIS:CSI06:1,2011-02-07T03:00:00Z,28.8667,-90.4833,14.09,11111222 
WAVCIS,ioos:station:WAVCIS:CSI06:1,2011-02-07T04:00:00Z,28.8667,-90.4833,14.37,11111222 
WAVCIS,ioos:station:WAVCIS:CSI06:1,2011-02-07T05:00:00Z,28.8667,-90.4833,14.54,11111222 
WAVCIS,ioos:station:WAVCIS:CSI06:1,2011-02-07T06:00:00Z,28.8667,-90.4833,14.32,11111222 
WAVCIS,ioos:station:WAVCIS:CSI06:1,2011-02-07T07:00:00Z,28.8667,-90.4833,14.38,11111222 
WAVCIS,ioos:station:WAVCIS:CSI06:1,2011-02-07T08:00:00Z,28.8667,-90.4833,13.67,11111222 
WAVCIS,ioos:station:WAVCIS:CSI06:1,2011-02-07T09:00:00Z,28.8667,-90.4833,13.51,11111222 
WAVCIS,ioos:station:WAVCIS:CSI06:1,2011-02-07T10:00:00Z,28.8667,-90.4833,13.74,11111222 
WAVCIS,ioos:station:WAVCIS:CSI06:1,2011-02-07T11:00:00Z,28.8667,-90.4833,13.84,11111222 
WAVCIS,ioos:station:WAVCIS:CSI06:1,2011-02-07T12:00:00Z,28.8667,-90.4833,13.81,11111222 
WAVCIS,ioos:station:WAVCIS:CSI06:1,2011-02-07T13:00:00Z,28.8667,-90.4833,12.35,11111222 
WAVCIS,ioos:station:WAVCIS:CSI06:1,2011-02-07T14:00:00Z,28.8667,-90.4833,10.6,11111222 
WAVCIS,ioos:station:WAVCIS:CSI06:1,2011-02-07T15:00:00Z,28.8667,-90.4833,9.02,11111222 
WAVCIS,ioos:station:WAVCIS:CSI06:1,2011-02-07T16:00:00Z,28.8667,-90.4833,7.64,11111222 
WAVCIS,ioos:station:WAVCIS:CSI06:1,2011-02-07T17:00:00Z,28.8667,-90.4833,6.89,11111222 
WAVCIS,ioos:station:WAVCIS:CSI06:1,2011-02-07T18:00:00Z,28.8667,-90.4833,6.88,11111222 
WAVCIS,ioos:station:WAVCIS:CSI06:1,2011-02-07T19:00:00Z,28.8667,-90.4833,7.24,11111222 
WAVCIS,ioos:station:WAVCIS:CSI06:1,2011-02-07T20:00:00Z,28.8667,-90.4833,7.41,11111222 
WAVCIS,ioos:station:WAVCIS:CSI06:1,2011-02-07T21:00:00Z,28.8667,-90.4833,8.04,11111222 
WAVCIS,ioos:station:WAVCIS:CSI06:1,2011-02-07T22:00:00Z,28.8667,-90.4833,8.21,11111222 
WAVCIS,ioos:station:WAVCIS:CSI06:1,2011-02-07T23:00:00Z,28.8667,-90.4833,8.21,11111222 
WAVCIS,ioos:station:WAVCIS:CSI06:1,2011-02-08T00:00:00Z,28.8667,-90.4833,7.0,11111222 
WAVCIS,ioos:station:WAVCIS:CSI06:1,2011-02-08T01:00:00Z,28.8667,-90.4833,6.65,11111222 
WAVCIS,ioos:station:WAVCIS:CSI06:1,2011-02-08T02:00:00Z,28.8667,-90.4833,6.45,11111222 
WAVCIS,ioos:station:WAVCIS:CSI06:1,2011-02-08T03:00:00Z,28.8667,-90.4833,6.13,11111222 
WAVCIS,ioos:station:WAVCIS:CSI06:1,2011-02-08T04:00:00Z,28.8667,-90.4833,5.491,11111222 
WAVCIS,ioos:station:WAVCIS:CSI06:1,2011-02-08T05:00:00Z,28.8667,-90.4833,5.258,11111222 
WAVCIS,ioos:station:WAVCIS:CSI06:1,2011-02-08T06:00:00Z,28.8667,-90.4833,4.989,11111222 
WAVCIS,ioos:station:WAVCIS:CSI06:1,2011-02-08T07:00:00Z,28.8667,-90.4833,4.992,11111222 
WAVCIS,ioos:station:WAVCIS:CSI06:1,2011-02-08T08:00:00Z,28.8667,-90.4833,4.858,11111222 
WAVCIS,ioos:station:WAVCIS:CSI06:1,2011-02-08T09:00:00Z,28.8667,-90.4833,5.098,11111222 
WAVCIS,ioos:station:WAVCIS:CSI06:1,2011-02-08T10:00:00Z,28.8667,-90.4833,4.854,11111222 
WAVCIS,ioos:station:WAVCIS:CSI06:1,2011-02-08T11:00:00Z,28.8667,-90.4833,5.147,11111222 
WAVCIS,ioos:station:WAVCIS:CSI06:1,2011-02-08T12:00:00Z,28.8667,-90.4833,4.996,11111222 
WAVCIS,ioos:station:WAVCIS:CSI06:1,2011-02-08T13:00:00Z,28.8667,-90.4833,4.594,11111222 
WAVCIS,ioos:station:WAVCIS:CSI06:1,2011-02-08T14:00:00Z,28.8667,-90.4833,4.957,11111222 
WAVCIS,ioos:station:WAVCIS:CSI06:1,2011-02-08T15:00:00Z,28.8667,-90.4833,5.18,11111222 
WAVCIS,ioos:station:WAVCIS:CSI06:1,2011-02-08T16:00:00Z,28.8667,-90.4833,5.046,11111222 
WAVCIS,ioos:station:WAVCIS:CSI06:1,2011-02-08T17:00:00Z,28.8667,-90.4833,5.314,11111222 
WAVCIS,ioos:station:WAVCIS:CSI06:1,2011-02-08T18:00:00Z,28.8667,-90.4833,5.562,11111222 
WAVCIS,ioos:station:WAVCIS:CSI06:1,2011-02-08T19:00:00Z,28.8667,-90.4833,5.106,11111222 
WAVCIS,ioos:station:WAVCIS:CSI06:1,2011-02-08T20:00:00Z,28.8667,-90.4833,5.308,11111222 
WAVCIS,ioos:station:WAVCIS:CSI06:1,2011-02-08T21:00:00Z,28.8667,-90.4833,5.77,11111222 
WAVCIS,ioos:station:WAVCIS:CSI06:1,2011-02-08T22:00:00Z,28.8667,-90.4833,6.11,11111222 
WAVCIS,ioos:station:WAVCIS:CSI06:1,2011-02-08T23:00:00Z,28.8667,-90.4833,6.61,11111222 
WAVCIS,ioos:station:WAVCIS:CSI06:1,2011-02-09T00:00:00Z,28.8667,-90.4833,6.55,11111222 
WAVCIS,ioos:station:WAVCIS:CSI06:1,2011-02-09T01:00:00Z,28.8667,-90.4833,6.63,11111222 
WAVCIS,ioos:station:WAVCIS:CSI06:1,2011-02-09T02:00:00Z,28.8667,-90.4833,7.16,11111222 
WAVCIS,ioos:station:WAVCIS:CSI06:1,2011-02-09T03:00:00Z,28.8667,-90.4833,7.42,11111222 
WAVCIS,ioos:station:WAVCIS:CSI06:1,2011-02-09T04:00:00Z,28.8667,-90.4833,8.16,11111222 
WAVCIS,ioos:station:WAVCIS:CSI06:1,2011-02-09T05:00:00Z,28.8667,-90.4833,8.79,11111222 
WAVCIS,ioos:station:WAVCIS:CSI06:1,2011-02-09T06:00:00Z,28.8667,-90.4833,10.46,11111222 
WAVCIS,ioos:station:WAVCIS:CSI06:1,2011-02-09T07:00:00Z,28.8667,-90.4833,11.22,11111222 
WAVCIS,ioos:station:WAVCIS:CSI06:1,2011-02-09T08:00:00Z,28.8667,-90.4833,11.55,11111222 
WAVCIS,ioos:station:WAVCIS:CSI06:1,2011-02-09T09:00:00Z,28.8667,-90.4833,11.85,11111222 
WAVCIS,ioos:station:WAVCIS:CSI06:1,2011-02-09T10:00:00Z,28.8667,-90.4833,12.24,11111222 
WAVCIS,ioos:station:WAVCIS:CSI06:1,2011-02-09T11:00:00Z,28.8667,-90.4833,9.86,11111222 
WAVCIS,ioos:station:WAVCIS:CSI06:1,2011-02-09T12:00:00Z,28.8667,-90.4833,9.13,11111222 
WAVCIS,ioos:station:WAVCIS:CSI06:1,2011-02-09T13:00:00Z,28.8667,-90.4833,9.35,11111222 
WAVCIS,ioos:station:WAVCIS:CSI06:1,2011-02-09T14:00:00Z,28.8667,-90.4833,9.08,11111222 
WAVCIS,ioos:station:WAVCIS:CSI06:1,2011-02-09T15:00:00Z,28.8667,-90.4833,9.64,11111222 
WAVCIS,ioos:station:WAVCIS:CSI06:1,2011-02-09T16:00:00Z,28.8667,-90.4833,10.78,11111222 
WAVCIS,ioos:station:WAVCIS:CSI06:1,2011-02-09T17:00:00Z,28.8667,-90.4833,11.68,11111222 
WAVCIS,ioos:station:WAVCIS:CSI06:1,2011-02-09T18:00:00Z,28.8667,-90.4833,11.54,11111222 
WAVCIS,ioos:station:WAVCIS:CSI06:1,2011-02-09T19:00:00Z,28.8667,-90.4833,12.23,11111222 
WAVCIS,ioos:station:WAVCIS:CSI06:1,2011-02-09T20:00:00Z,28.8667,-90.4833,12.53,11111222 
WAVCIS,ioos:station:WAVCIS:CSI06:1,2011-02-09T21:00:00Z,28.8667,-90.4833,12.74,11111222 
WAVCIS,ioos:station:WAVCIS:CSI06:1,2011-02-09T22:00:00Z,28.8667,-90.4833,13.88,11111222 
WAVCIS,ioos:station:WAVCIS:CSI06:1,2011-02-09T23:00:00Z,28.8667,-90.4833,14.75,11111222 
WAVCIS,ioos:station:WAVCIS:CSI06:1,2011-02-10T00:00:00Z,28.8667,-90.4833,15.04,11111222 
WAVCIS,ioos:station:WAVCIS:CSI06:1,2011-02-10T01:00:00Z,28.8667,-90.4833,15.16,11111222 
WAVCIS,ioos:station:WAVCIS:CSI06:1,2011-02-10T02:00:00Z,28.8667,-90.4833,9.12,11111222 
WAVCIS,ioos:station:WAVCIS:CSI06:1,2011-02-10T03:00:00Z,28.8667,-90.4833,7.43,11111222 
WAVCIS,ioos:station:WAVCIS:CSI06:1,2011-02-10T04:00:00Z,28.8667,-90.4833,7.24,11111222 
WAVCIS,ioos:station:WAVCIS:CSI06:1,2011-02-10T05:00:00Z,28.8667,-90.4833,7.16,11111222 
WAVCIS,ioos:station:WAVCIS:CSI06:1,2011-02-10T06:00:00Z,28.8667,-90.4833,6.82,11111222 
WAVCIS,ioos:station:WAVCIS:CSI06:1,2011-02-10T07:00:00Z,28.8667,-90.4833,5.8,11111222 
WAVCIS,ioos:station:WAVCIS:CSI06:1,2011-02-10T08:00:00Z,28.8667,-90.4833,4.843,11111222 
WAVCIS,ioos:station:WAVCIS:CSI06:1,2011-02-10T09:00:00Z,28.8667,-90.4833,4.78,11111222 
WAVCIS,ioos:station:WAVCIS:CSI06:1,2011-02-10T10:00:00Z,28.8667,-90.4833,3.242,11111222 
WAVCIS,ioos:station:WAVCIS:CSI06:1,2011-02-10T11:00:00Z,28.8667,-90.4833,2.66,11111222 
WAVCIS,ioos:station:WAVCIS:CSI06:1,2011-02-10T12:00:00Z,28.8667,-90.4833,2.823,11111222 
WAVCIS,ioos:station:WAVCIS:CSI06:1,2011-02-10T13:00:00Z,28.8667,-90.4833,2.418,11111222 
WAVCIS,ioos:station:WAVCIS:CSI06:1,2011-02-10T14:00:00Z,28.8667,-90.4833,2.017,11111222 
WAVCIS,ioos:station:WAVCIS:CSI06:1,2011-02-10T15:00:00Z,28.8667,-90.4833,2.274,11111222 
WAVCIS,ioos:station:WAVCIS:CSI06:1,2011-02-10T16:00:00Z,28.8667,-90.4833,2.847,11111222 
WAVCIS,ioos:station:WAVCIS:CSI06:1,2011-02-10T17:00:00Z,28.8667,-90.4833,2.909,11111222 
WAVCIS,ioos:station:WAVCIS:CSI06:1,2011-02-10T18:00:00Z,28.8667,-90.4833,2.817,11111222 
WAVCIS,ioos:station:WAVCIS:CSI06:1,2011-02-10T19:00:00Z,28.8667,-90.4833,2.686,11111222 
WAVCIS,ioos:station:WAVCIS:CSI06:1,2011-02-10T20:00:00Z,28.8667,-90.4833,2.45,11111222 
WAVCIS,ioos:station:WAVCIS:CSI06:1,2011-02-10T21:00:00Z,28.8667,-90.4833,2.51,11111222 
WAVCIS,ioos:station:WAVCIS:CSI06:1,2011-02-10T22:00:00Z,28.8667,-90.4833,2.506,11111222 
WAVCIS,ioos:station:WAVCIS:CSI06:1,2011-02-10T23:00:00Z,28.8667,-90.4833,2.389,11111222 
WAVCIS,ioos:station:WAVCIS:CSI06:1,2011-02-11T00:00:00Z,28.8667,-90.4833,2.152,11111222 
WAVCIS,ioos:station:WAVCIS:CSI06:1,2011-02-11T01:00:00Z,28.8667,-90.4833,2.161,11111222 
WAVCIS,ioos:station:WAVCIS:CSI06:1,2011-02-11T02:00:00Z,28.8667,-90.4833,2.708,11111222 
WAVCIS,ioos:station:WAVCIS:CSI06:1,2011-02-11T03:00:00Z,28.8667,-90.4833,3.182,11111222 
WAVCIS,ioos:station:WAVCIS:CSI06:1,2011-02-11T04:00:00Z,28.8667,-90.4833,3.447,11111222 
WAVCIS,ioos:station:WAVCIS:CSI06:1,2011-02-11T05:00:00Z,28.8667,-90.4833,3.264,11111222 
WAVCIS,ioos:station:WAVCIS:CSI06:1,2011-02-11T06:00:00Z,28.8667,-90.4833,2.624,11111222 
WAVCIS,ioos:station:WAVCIS:CSI06:1,2011-02-11T07:00:00Z,28.8667,-90.4833,2.192,11111222 
WAVCIS,ioos:station:WAVCIS:CSI06:1,2011-02-11T08:00:00Z,28.8667,-90.4833,1.901,11111222 
WAVCIS,ioos:station:WAVCIS:CSI06:1,2011-02-11T09:00:00Z,28.8667,-90.4833,1.64,11111222 
WAVCIS,ioos:station:WAVCIS:CSI06:1,2011-02-11T10:00:00Z,28.8667,-90.4833,1.245,11111222 
WAVCIS,ioos:station:WAVCIS:CSI06:1,2011-02-11T11:00:00Z,28.8667,-90.4833,1.164,11111222 
WAVCIS,ioos:station:WAVCIS:CSI06:1,2011-02-11T12:00:00Z,28.8667,-90.4833,0.762,11111222 
WAVCIS,ioos:station:WAVCIS:CSI06:1,2011-02-11T13:00:00Z,28.8667,-90.4833,0.439,11111222 
WAVCIS,ioos:station:WAVCIS:CSI06:1,2011-02-11T14:00:00Z,28.8667,-90.4833,-0.018,11133222 
WAVCIS,ioos:station:WAVCIS:CSI06:1,2011-02-11T15:00:00Z,28.8667,-90.4833,0.024,11111222 
WAVCIS,ioos:station:WAVCIS:CSI06:1,2011-02-11T16:00:00Z,28.8667,-90.4833,0.475,11111222 
WAVCIS,ioos:station:WAVCIS:CSI06:1,2011-02-11T17:00:00Z,28.8667,-90.4833,1.009,11111222 
WAVCIS,ioos:station:WAVCIS:CSI06:1,2011-02-11T18:00:00Z,28.8667,-90.4833,1.918,11111222 
WAVCIS,ioos:station:WAVCIS:CSI06:1,2011-02-11T19:00:00Z,28.8667,-90.4833,2.593,11111222 
WAVCIS,ioos:station:WAVCIS:CSI06:1,2011-02-11T20:00:00Z,28.8667,-90.4833,3.51,11111222 
WAVCIS,ioos:station:WAVCIS:CSI06:1,2011-02-11T21:00:00Z,28.8667,-90.4833,4.791,11111222 
WAVCIS,ioos:station:WAVCIS:CSI06:1,2011-02-11T22:00:00Z,28.8667,-90.4833,6.0,11111222 
WAVCIS,ioos:station:WAVCIS:CSI06:1,2011-02-11T23:00:00Z,28.8667,-90.4833,6.36,11111222 
WAVCIS,ioos:station:WAVCIS:CSI06:1,2011-02-12T00:00:00Z,28.8667,-90.4833,6.71,11111222 
WAVCIS,ioos:station:WAVCIS:CSI06:1,2011-02-12T01:00:00Z,28.8667,-90.4833,7.07,11111222 
WAVCIS,ioos:station:WAVCIS:CSI06:1,2011-02-12T02:00:00Z,28.8667,-90.4833,7.03,11111222 
WAVCIS,ioos:station:WAVCIS:CSI06:1,2011-02-12T03:00:00Z,28.8667,-90.4833,7.07,11111222 
WAVCIS,ioos:station:WAVCIS:CSI06:1,2011-02-12T04:00:00Z,28.8667,-90.4833,7.14,11111222 